Weather in Vorontsovo

Russia / Ivanovo Oblast     56°58′56″N   40°31′25″E
temp.,
°C
wind,
m/s
gust,
m/s
humid.,
%
clouds,
%
prec.,
mm/h
press.,
hPa
HPBL,
m
3 march, wed
wed300:00−4nnw5128878 0.2 1008589
03:00−7nw5129150 0.2 1010480
06:00−8nw5139496 0.0 1011459
09:00−6nw5128999 0.1 1012719
12:00−3wnw598676 0.0 1011789
15:00−2w499186 0.1 1010844
18:00−1w51194100 0.3 1007858
21:00−1w51191100 0.5 1006954
4 march, thu
thu400:00−2wsw51295100 0.3 1002752
03:00−1wsw51293100 0.9 999786
06:000w71497100 1.8 9951038
09:00−1wnw71384100 4.6 9951408
12:00−2wnw7118467 0.1 9961027
15:00−3wnw698484 0.1 998929
18:00−4wnw3895100 0.1 999381
21:00−8nw249579 0.1 1001100
5 march, fri
fri500:00−10nnw229654 0.0 100221
03:00−12nnw229527 0.0 100321
06:00−13nw22970 0.0 100420
09:00−10wnw129432 0.0 1005133
12:00−5w128395 0.0 1005449
15:00−5w249196 0.2 1007425
18:00−6w2696100 0.6 1007359
21:00−11nw249477 0.6 101093
6 march, sat
sat600:00−12wnw239720 0.0 101148
03:00−13nw259654 0.1 1013140
06:00−18nw259758 0.0 101495
09:00−16nw369342 0.0 1015235
12:00−12nw358640 0.0 1015566
15:00−10wnw358470 0.1 1015858
18:00−12w2394100 0.1 101442
21:00−14wsw239687 0.1 101346
7 march, sun
sun700:00−13ssw379658 0.1 1011158
03:00−13ssw4119468 0.1 1007280
06:00−10ssw61493100 0.6 1001794
09:00−7ssw71393100 1.4 996950
12:00−4ssw71293100 2.4 9921047
15:00−7wnw51074100 4.2 991999
18:00−11w228076 0.0 99221
21:00−11sse259174 0.1 993142